TimeCST,TemperatureF,Dew PointF,Humidity,Sea Level PressureIn,VisibilityMPH,Wind Direction,Wind SpeedMPH,Gust SpeedMPH,PrecipitationIn,Events,Conditions,WindDirDegrees,DateUTC
12:00 AM,68,58,63,29.85,12,ENE,9.2,,,,,70,2013-02-15 06:00:00
12:00 AM,68.0,59.0,73,30.02,-9999.0,ENE,9.2,-,N/A,,Clear,70,2013-02-15 06:00:00
1:00 AM,66.2,57.2,73,30.00,-9999.0,ENE,6.9,-,N/A,,Clear,70,2013-02-15 07:00:00
2:00 AM,66.2,57.2,73,29.98,-9999.0,ENE,5.8,-,N/A,,Clear,60,2013-02-15 08:00:00
3:00 AM,65,56,64,29.83,12,NE,5.8,,,,,40,2013-02-15 09:00:00
3:00 AM,64.4,55.4,73,29.98,-9999.0,NE,5.8,-,N/A,,Clear,40,2013-02-15 09:00:00
4:00 AM,66.2,53.6,64,29.98,-9999.0,ENE,9.2,-,N/A,,Clear,70,2013-02-15 10:00:00
5:00 AM,64.4,53.6,68,29.99,-9999.0,ENE,8.1,-,N/A,,Clear,60,2013-02-15 11:00:00
6:00 AM,65,53,55,29.89,12,East,8.1,,,,,80,2013-02-15 12:00:00
6:00 AM,64.4,51.8,64,30.01,-9999.0,East,8.1,-,N/A,,Clear,80,2013-02-15 12:00:00
7:00 AM,66.2,51.8,60,30.03,-9999.0,NE,5.8,-,N/A,,Clear,50,2013-02-15 13:00:00
8:00 AM,73.4,50.0,44,30.04,-9999.0,East,8.1,-,N/A,,Clear,90,2013-02-15 14:00:00
9:00 AM,79,46,21,29.88,12,East,6.9,,,,,100,2013-02-15 15:00:00
9:00 AM,78.8,46.4,32,30.04,-9999.0,East,6.9,-,N/A,,Clear,100,2013-02-15 15:00:00
10:00 AM,82.4,46.4,28,30.04,-9999.0,SE,5.8,-,N/A,,Clear,140,2013-02-15 16:00:00
11:00 AM,82.4,55.4,39,30.01,6.2,WSW,6.9,-,N/A,,Partly Cloudy,240,2013-02-15 17:00:00
12:00 PM,84,57,29,29.80,12,SW,9.2,,,,Scattered Clouds,230,2013-02-15 18:00:00
12:00 PM,84.2,57.2,40,29.98,6.2,SW,9.2,-,N/A,,Partly Cloudy,230,2013-02-15 18:00:00
1:00 PM,82.4,59.0,45,29.96,6.2,WSW,11.5,-,N/A,,Scattered Clouds,240,2013-02-15 19:00:00
2:00 PM,78.8,64.4,61,29.94,6.2,SW,11.5,-,N/A,,Scattered Clouds,220,2013-02-15 20:00:00
3:00 PM,78,65,56,29.77,12,South,10.4,,,,Mostly Cloudy,190,2013-02-15 21:00:00
3:00 PM,78.8,64.4,61,29.92,6.2,South,10.4,-,N/A,,Scattered Clouds,190,2013-02-15 21:00:00
4:00 PM,75.2,66.2,73,29.93,6.2,SW,11.5,-,N/A,,Mostly Cloudy,230,2013-02-15 22:00:00
5:00 PM,73.4,66.2,78,29.95,6.2,South,5.8,-,N/A,Rain,Light Rain,190,2013-02-15 23:00:00
6:00 PM,73,64,65,29.81,12,WNW,3.5,,,,Mostly Cloudy,290,2013-02-16 00:00:00
6:00 PM,73.4,64.4,73,29.95,6.2,WNW,3.5,-,N/A,,Scattered Clouds,290,2013-02-16 00:00:00
7:00 PM,73.4,62.6,69,29.98,6.2,ESE,3.5,-,N/A,,Scattered Clouds,120,2013-02-16 01:00:00
8:00 PM,71.6,60.8,69,30.00,6.2,ESE,5.8,-,N/A,,Mostly Cloudy,110,2013-02-16 02:00:00
9:00 PM,70,59,59,29.92,12,SE,2.3,,,,Scattered Clouds,130,2013-02-16 03:00:00
9:00 PM,69.8,59.0,68,30.01,-9999.0,SE,2.3,-,N/A,,Clear,130,2013-02-16 03:00:00
10:00 PM,69.8,59.0,68,30.02,-9999.0,East,9.2,-,N/A,,Clear,100,2013-02-16 04:00:00
11:00 PM,68.0,59.0,73,30.02,-9999.0,ENE,9.2,-,N/A,,Clear,70,2013-02-16 05:00:00